Location: Newark
(27.9675°N, 86.8869°E)
Time: 12:59:45
(UTC+00:00)

Altair - Pass Details

Date: 31 October 2019
Orbit: 1502 x 1682 km, 47.2° (Epoch: 20 November)

Event Time Altitude Azimuth Distance (km) Brightness Sun altitude
Rises 10:15:02 0° 304° (NW) 4,842 10.6 14.6°
Reaches altitude 10° 10:18:17 10° 299° (WNW) 3,876 10.2 13.9°
Maximum altitude 10:27:35 46° 230° (SW) 2,127 9.3 12.0°
Drops below altitude 10° 10:37:04 10° 161° (SSE) 3,933 9.7 10.1°
Sets 10:40:24 0° 155° (SSE) 4,918 10.1 9.4°
